Time,TemperatureF,DewpointF,PressureIn,WindDirection,WindDirectionDegrees,WindSpeedMPH,WindSpeedGustMPH,Humidity,HourlyPrecipIn,Conditions,Clouds,dailyrainin,SoftwareType,DateUTC
2013-03-24 00:02:00,30.0,28.0,30.01,NNE,21,6.0,13.0,91,0.00,,,0.03,,2013-03-24 05:02:00,
2013-03-24 00:12:00,30.0,28.0,30.01,NNE,21,6.0,13.0,91,0.00,,,0.03,,2013-03-24 05:12:00,
2013-03-24 00:22:00,30.0,28.0,30.01,NNE,31,6.0,10.0,91,0.00,,,0.03,,2013-03-24 05:22:00,
2013-03-24 00:32:00,30.0,28.0,30.00,NNE,17,8.0,13.0,91,0.00,,,0.03,,2013-03-24 05:32:00,
2013-03-24 00:42:00,30.0,28.0,30.00,NNE,17,8.0,13.0,91,0.00,,,0.03,,2013-03-24 05:42:00,
2013-03-24 00:52:00,30.0,27.0,30.00,North,2,6.0,10.0,90,0.00,,,0.03,,2013-03-24 05:52:00,
2013-03-24 01:02:00,30.0,27.0,29.99,North,6,6.0,15.0,90,0.00,,,0.03,,2013-03-24 06:02:00,
2013-03-24 01:12:00,30.0,27.0,29.99,North,6,6.0,15.0,90,0.00,,,0.03,,2013-03-24 06:12:00,
2013-03-24 01:22:00,30.0,27.0,29.98,NNE,19,8.0,12.0,90,0.00,,,0.03,,2013-03-24 06:22:00,
2013-03-24 01:32:00,30.0,27.0,29.99,North,4,7.0,14.0,90,0.00,,,0.03,,2013-03-24 06:32:00,
2013-03-24 01:42:00,30.0,27.0,29.99,North,4,7.0,14.0,90,0.00,,,0.03,,2013-03-24 06:42:00,
2013-03-24 01:52:00,30.0,27.0,30.00,North,10,7.0,13.0,90,0.00,,,0.03,,2013-03-24 06:52:00,
2013-03-24 02:02:00,30.0,27.0,29.98,North,4,8.0,12.0,90,0.00,,,0.03,,2013-03-24 07:02:00,
2013-03-24 02:12:00,30.0,27.0,29.98,North,4,8.0,12.0,90,0.00,,,0.03,,2013-03-24 07:12:00,
2013-03-24 02:22:00,30.0,27.0,29.97,NNE,17,7.0,15.0,90,0.00,,,0.03,,2013-03-24 07:22:00,
2013-03-24 02:32:00,30.0,27.0,29.97,North,11,7.0,13.0,90,0.00,,,0.03,,2013-03-24 07:32:00,
2013-03-24 02:42:00,30.0,27.0,29.97,North,11,7.0,13.0,90,0.00,,,0.03,,2013-03-24 07:42:00,
2013-03-24 02:52:00,29.0,27.0,29.97,North,9,6.0,13.0,91,0.00,,,0.03,,2013-03-24 07:52:00,
2013-03-24 03:03:00,29.0,27.0,29.97,North,9,6.0,12.0,91,0.00,,,0.03,,2013-03-24 08:03:00,
2013-03-24 03:12:00,29.0,27.0,29.97,North,9,6.0,12.0,91,0.00,,,0.03,,2013-03-24 08:12:00,
2013-03-24 03:22:00,29.0,27.0,29.96,North,6,7.0,10.0,91,0.00,,,0.03,,2013-03-24 08:22:00,
2013-03-24 03:32:00,29.0,27.0,29.97,North,1,7.0,13.0,91,0.00,,,0.03,,2013-03-24 08:32:00,
2013-03-24 03:42:00,29.0,27.0,29.97,North,1,7.0,13.0,91,0.00,,,0.03,,2013-03-24 08:42:00,
2013-03-24 03:52:00,29.0,27.0,29.96,North,353,7.0,13.0,92,0.00,,,0.03,,2013-03-24 08:52:00,
2013-03-24 04:02:00,29.0,27.0,29.96,North,351,7.0,11.0,92,0.00,,,0.03,,2013-03-24 09:02:00,
2013-03-24 04:12:00,29.0,27.0,29.96,North,351,7.0,11.0,92,0.00,,,0.03,,2013-03-24 09:12:00,
2013-03-24 04:22:00,28.0,26.0,29.97,North,358,8.0,10.0,91,0.00,,,0.03,,2013-03-24 09:22:00,
2013-03-24 04:33:00,28.0,26.0,29.97,North,351,8.0,13.0,91,0.00,,,0.03,,2013-03-24 09:33:00,
2013-03-24 04:42:00,28.0,26.0,29.97,North,351,8.0,13.0,91,0.00,,,0.03,,2013-03-24 09:42:00,
2013-03-24 04:52:00,28.0,26.0,29.96,North,351,8.0,15.0,91,0.00,,,0.03,,2013-03-24 09:52:00,
2013-03-24 05:02:00,28.0,26.0,29.96,North,357,11.0,16.0,91,0.00,,,0.03,,2013-03-24 10:02:00,
2013-03-24 05:12:00,28.0,26.0,29.96,North,357,11.0,16.0,91,0.00,,,0.03,,2013-03-24 10:12:00,
2013-03-24 05:22:00,28.0,26.0,29.96,NNW,348,8.0,14.0,91,0.00,,,0.03,,2013-03-24 10:22:00,
2013-03-24 05:32:00,28.0,26.0,29.96,North,353,11.0,16.0,91,0.00,,,0.03,,2013-03-24 10:32:00,
2013-03-24 05:42:00,28.0,26.0,29.96,North,353,11.0,16.0,91,0.00,,,0.03,,2013-03-24 10:42:00,
2013-03-24 05:52:00,28.0,26.0,29.96,North,353,13.0,19.0,91,0.00,,,0.03,,2013-03-24 10:52:00,
2013-03-24 06:03:00,27.0,25.0,29.97,North,351,10.0,14.0,91,0.00,,,0.03,,2013-03-24 11:03:00,
2013-03-24 06:12:00,27.0,25.0,29.97,North,351,10.0,14.0,91,0.00,,,0.03,,2013-03-24 11:12:00,
2013-03-24 06:22:00,27.0,25.0,29.97,North,352,8.0,14.0,91,0.00,,,0.03,,2013-03-24 11:22:00,
2013-03-24 06:33:00,28.0,26.0,29.98,North,354,10.0,18.0,91,0.00,,,0.03,,2013-03-24 11:33:00,
2013-03-24 06:42:00,28.0,26.0,29.98,North,354,10.0,18.0,91,0.00,,,0.03,,2013-03-24 11:42:00,
2013-03-24 06:52:00,28.0,26.0,29.98,North,354,8.0,14.0,91,0.00,,,0.03,,2013-03-24 11:52:00,
2013-03-24 07:02:00,28.0,26.0,29.98,NNW,345,9.0,20.0,91,0.00,,,0.03,,2013-03-24 12:02:00,
2013-03-24 07:12:00,28.0,26.0,29.98,NNW,345,9.0,20.0,91,0.00,,,0.03,,2013-03-24 12:12:00,
2013-03-24 07:22:00,27.0,25.0,29.98,North,351,10.0,18.0,91,0.00,,,0.03,,2013-03-24 12:22:00,
2013-03-24 07:32:00,27.0,25.0,29.99,North,350,7.0,12.0,91,0.00,,,0.03,,2013-03-24 12:32:00,
2013-03-24 07:42:00,27.0,25.0,29.99,North,350,7.0,12.0,91,0.00,,,0.03,,2013-03-24 12:42:00,
2013-03-24 07:52:00,27.0,25.0,29.99,North,357,10.0,14.0,91,0.00,,,0.03,,2013-03-24 12:52:00,
2013-03-24 08:02:00,27.0,25.0,29.99,North,351,9.0,18.0,91,0.00,,,0.03,,2013-03-24 13:02:00,
2013-03-24 08:12:00,27.0,25.0,29.99,North,351,9.0,18.0,91,0.00,,,0.03,,2013-03-24 13:12:00,
2013-03-24 08:22:00,26.0,24.0,29.98,North,349,8.0,13.0,91,0.00,,,0.03,,2013-03-24 13:22:00,
2013-03-24 08:32:00,26.0,23.0,30.00,NNW,345,8.0,16.0,90,0.00,,,0.03,,2013-03-24 13:32:00,
2013-03-24 08:42:00,26.0,23.0,30.00,NNW,345,8.0,16.0,90,0.00,,,0.03,,2013-03-24 13:42:00,
2013-03-24 08:52:00,26.0,23.0,30.00,NNW,346,7.0,13.0,90,0.00,,,0.03,,2013-03-24 13:52:00,
2013-03-24 09:02:00,26.0,23.0,30.01,NNW,337,7.0,12.0,90,0.00,,,0.03,,2013-03-24 14:02:00,
2013-03-24 09:12:00,26.0,23.0,30.01,NNW,337,7.0,12.0,90,0.00,,,0.03,,2013-03-24 14:12:00,
2013-03-24 09:22:00,26.0,23.0,30.01,North,349,9.0,13.0,90,0.00,,,0.03,,2013-03-24 14:22:00,
2013-03-24 09:32:00,25.0,22.0,30.00,NNW,348,8.0,11.0,89,0.00,,,0.03,,2013-03-24 14:32:00,
2013-03-24 09:42:00,25.0,22.0,30.00,NNW,348,8.0,11.0,89,0.00,,,0.03,,2013-03-24 14:42:00,
2013-03-24 09:52:00,26.0,23.0,30.00,NNW,344,5.0,10.0,90,0.00,,,0.03,,2013-03-24 14:52:00,
2013-03-24 10:02:00,26.0,23.0,30.01,North,350,8.0,14.0,89,0.00,,,0.03,,2013-03-24 15:02:00,
2013-03-24 10:12:00,26.0,23.0,30.01,North,350,8.0,14.0,89,0.00,,,0.03,,2013-03-24 15:12:00,
2013-03-24 10:22:00,26.0,23.0,30.01,NNW,336,8.0,10.0,89,0.00,,,0.03,,2013-03-24 15:22:00,
2013-03-24 10:33:00,26.0,23.0,30.01,NNW,348,7.0,13.0,89,0.00,,,0.03,,2013-03-24 15:33:00,
2013-03-24 10:43:00,26.0,23.0,30.01,NNW,348,7.0,13.0,89,0.00,,,0.03,,2013-03-24 15:43:00,
2013-03-24 10:53:00,26.0,23.0,30.01,NNW,340,7.0,13.0,89,0.00,,,0.03,,2013-03-24 15:53:00,
2013-03-24 11:03:00,26.0,23.0,30.01,North,353,8.0,12.0,89,0.00,,,0.03,,2013-03-24 16:03:00,
2013-03-24 11:12:00,26.0,23.0,30.01,North,353,8.0,12.0,89,0.00,,,0.03,,2013-03-24 16:12:00,
2013-03-24 11:22:00,26.0,23.0,30.01,North,349,7.0,16.0,88,0.00,,,0.03,,2013-03-24 16:22:00,
2013-03-24 11:33:00,26.0,23.0,30.01,NNW,337,6.0,15.0,88,0.00,,,0.03,,2013-03-24 16:33:00,
2013-03-24 11:42:00,26.0,23.0,30.01,NNW,337,6.0,15.0,88,0.00,,,0.03,,2013-03-24 16:42:00,
2013-03-24 11:52:00,26.0,23.0,30.01,NW,324,9.0,15.0,88,0.00,,,0.03,,2013-03-24 16:52:00,
2013-03-24 12:02:00,27.0,24.0,30.01,NNW,344,6.0,12.0,88,0.00,,,0.03,,2013-03-24 17:02:00,
2013-03-24 12:12:00,27.0,24.0,30.01,NNW,344,6.0,12.0,88,0.00,,,0.03,,2013-03-24 17:12:00,
2013-03-24 12:22:00,27.0,24.0,30.01,NNW,335,6.0,11.0,88,0.00,,,0.03,,2013-03-24 17:22:00,
2013-03-24 12:33:00,27.0,24.0,30.01,NNW,341,10.0,15.0,88,0.00,,,0.03,,2013-03-24 17:33:00,
2013-03-24 12:42:00,27.0,24.0,30.01,NNW,341,10.0,15.0,88,0.00,,,0.03,,2013-03-24 17:42:00,
2013-03-24 12:52:00,27.0,24.0,30.01,NNW,340,8.0,16.0,87,0.00,,,0.03,,2013-03-24 17:52:00,
2013-03-24 13:03:00,28.0,25.0,30.01,NW,323,8.0,16.0,87,0.00,,,0.03,,2013-03-24 18:03:00,
2013-03-24 13:12:00,28.0,25.0,30.01,NW,323,8.0,16.0,87,0.00,,,0.03,,2013-03-24 18:12:00,
2013-03-24 13:22:00,27.0,23.0,30.01,NNW,345,9.0,16.0,86,0.00,,,0.03,,2013-03-24 18:22:00,
2013-03-24 13:32:00,28.0,24.0,30.00,NW,318,8.0,12.0,85,0.00,,,0.03,,2013-03-24 18:32:00,
2013-03-24 13:42:00,28.0,24.0,30.00,NW,318,8.0,12.0,85,0.00,,,0.03,,2013-03-24 18:42:00,
2013-03-24 13:52:00,28.0,24.0,30.00,NNW,345,9.0,15.0,84,0.00,,,0.03,,2013-03-24 18:52:00,
2013-03-24 14:02:00,28.0,24.0,30.00,NNW,332,8.0,14.0,83,0.00,,,0.03,,2013-03-24 19:02:00,
2013-03-24 14:12:00,28.0,24.0,30.00,NNW,332,8.0,14.0,83,0.00,,,0.03,,2013-03-24 19:12:00,
2013-03-24 14:22:00,29.0,25.0,30.00,NNW,346,9.0,15.0,83,0.00,,,0.03,,2013-03-24 19:22:00,
2013-03-24 14:32:00,29.0,23.0,30.00,NW,321,11.0,18.0,79,0.00,,,0.03,,2013-03-24 19:32:00,
2013-03-24 14:42:00,29.0,23.0,30.00,NW,321,11.0,18.0,79,0.00,,,0.03,,2013-03-24 19:42:00,
2013-03-24 14:52:00,29.0,23.0,30.00,NNW,346,9.0,20.0,78,0.00,,,0.03,,2013-03-24 19:52:00,
2013-03-24 15:02:00,30.0,24.0,30.00,NW,313,9.0,16.0,77,0.00,,,0.03,,2013-03-24 20:02:00,
2013-03-24 15:12:00,30.0,24.0,30.00,NW,313,9.0,16.0,77,0.00,,,0.03,,2013-03-24 20:12:00,
2013-03-24 15:22:00,30.0,23.0,30.01,NW,326,8.0,20.0,76,0.00,,,0.03,,2013-03-24 20:22:00,
2013-03-24 15:32:00,30.0,23.0,30.00,NW,317,8.0,16.0,74,0.00,,,0.03,,2013-03-24 20:32:00,
2013-03-24 15:42:00,30.0,23.0,30.00,NW,317,8.0,16.0,74,0.00,,,0.03,,2013-03-24 20:42:00,
2013-03-24 15:53:00,31.0,23.0,30.01,NNW,327,7.0,19.0,73,0.01,,,0.04,,2013-03-24 20:53:00,
2013-03-24 16:02:00,30.0,22.0,30.01,NW,309,7.0,18.0,73,0.01,,,0.04,,2013-03-24 21:02:00,
2013-03-24 16:12:00,30.0,22.0,30.01,NW,309,7.0,18.0,73,0.01,,,0.04,,2013-03-24 21:12:00,
2013-03-24 16:22:00,30.0,23.0,30.02,NW,316,11.0,23.0,74,0.01,,,0.04,,2013-03-24 21:22:00,
2013-03-24 16:33:00,30.0,23.0,30.02,NW,307,10.0,22.0,75,0.01,,,0.04,,2013-03-24 21:33:00,
2013-03-24 16:43:00,30.0,23.0,30.02,NW,307,10.0,22.0,75,0.01,,,0.04,,2013-03-24 21:43:00,
2013-03-24 16:53:00,30.0,23.0,30.02,NW,306,7.0,18.0,75,0.00,,,0.04,,2013-03-24 21:53:00,
2013-03-24 17:02:00,30.0,23.0,30.03,NW,312,9.0,16.0,74,0.00,,,0.04,,2013-03-24 22:02:00,
2013-03-24 17:13:00,30.0,23.0,30.03,NNW,328,9.0,15.0,74,0.00,,,0.04,,2013-03-24 22:13:00,
2013-03-24 17:22:00,30.0,23.0,30.03,NNW,328,9.0,15.0,74,0.00,,,0.04,,2013-03-24 22:22:00,
2013-03-24 17:33:00,30.0,22.0,30.03,NW,313,9.0,20.0,73,0.00,,,0.04,,2013-03-24 22:33:00,
2013-03-24 17:42:00,30.0,22.0,30.03,NW,313,9.0,20.0,73,0.00,,,0.04,,2013-03-24 22:42:00,
2013-03-24 17:52:00,30.0,22.0,30.04,NW,306,7.0,14.0,73,0.00,,,0.04,,2013-03-24 22:52:00,
2013-03-24 18:02:00,30.0,22.0,30.04,NW,304,7.0,15.0,72,0.00,,,0.04,,2013-03-24 23:02:00,
2013-03-24 18:12:00,30.0,22.0,30.04,NW,304,7.0,15.0,72,0.00,,,0.04,,2013-03-24 23:12:00,
2013-03-24 18:22:00,29.0,21.0,30.05,WNW,287,10.0,20.0,72,0.00,,,0.03,,2013-03-24 23:22:00,
2013-03-24 18:32:00,29.0,21.0,30.05,NW,318,6.0,18.0,72,0.00,,,0.03,,2013-03-24 23:32:00,
2013-03-24 18:42:00,29.0,21.0,30.05,NW,318,6.0,18.0,72,0.00,,,0.03,,2013-03-24 23:42:00,
2013-03-24 18:52:00,29.0,21.0,30.06,WNW,300,11.0,23.0,72,0.00,,,0.02,,2013-03-24 23:52:00,
2013-03-24 19:02:00,28.0,21.0,30.06,WNW,300,9.0,19.0,74,0.00,,,0.02,,2013-03-25 00:02:00,
2013-03-24 19:12:00,28.0,21.0,30.06,WNW,300,9.0,19.0,74,0.00,,,0.02,,2013-03-25 00:12:00,
2013-03-24 19:22:00,28.0,20.0,30.07,WNW,291,10.0,20.0,73,0.00,,,0.02,,2013-03-25 00:22:00,
2013-03-24 19:32:00,28.0,20.0,30.08,WNW,297,9.0,15.0,73,0.00,,,0.02,,2013-03-25 00:32:00,
2013-03-24 19:42:00,28.0,20.0,30.08,WNW,297,9.0,15.0,73,0.00,,,0.02,,2013-03-25 00:42:00,
2013-03-24 19:53:00,28.0,20.0,30.09,WNW,298,8.0,16.0,73,0.00,,,0.02,,2013-03-25 00:53:00,
2013-03-24 20:02:00,28.0,20.0,30.09,WNW,303,8.0,16.0,73,0.00,,,0.02,,2013-03-25 01:02:00,
2013-03-24 20:12:00,28.0,20.0,30.09,WNW,303,8.0,16.0,73,0.00,,,0.02,,2013-03-25 01:12:00,
2013-03-24 20:22:00,28.0,20.0,30.09,WNW,303,6.0,14.0,73,0.00,,,0.01,,2013-03-25 01:22:00,
2013-03-24 20:32:00,28.0,20.0,30.10,NW,309,7.0,16.0,72,0.00,,,0.01,,2013-03-25 01:32:00,
2013-03-24 20:42:00,28.0,20.0,30.10,NW,309,7.0,16.0,72,0.00,,,0.01,,2013-03-25 01:42:00,
2013-03-24 20:52:00,27.0,20.0,30.10,NW,315,5.0,18.0,73,0.00,,,0.01,,2013-03-25 01:52:00,
2013-03-24 21:02:00,27.0,20.0,30.10,NW,306,8.0,18.0,73,0.00,,,0.01,,2013-03-25 02:02:00,
2013-03-24 21:12:00,27.0,20.0,30.10,NW,306,8.0,18.0,73,0.00,,,0.01,,2013-03-25 02:12:00,
2013-03-24 21:22:00,27.0,20.0,30.11,WNW,302,5.0,11.0,74,0.00,,,0.01,,2013-03-25 02:22:00,
2013-03-24 21:32:00,27.0,20.0,30.11,WNW,303,8.0,20.0,74,0.00,,,0.01,,2013-03-25 02:32:00,
2013-03-24 21:42:00,26.0,19.0,30.11,WNW,297,7.0,14.0,75,0.00,,,0.01,,2013-03-25 02:42:00,
2013-03-24 21:52:00,26.0,19.0,30.11,WNW,297,7.0,14.0,75,0.00,,,0.01,,2013-03-25 02:52:00,
2013-03-24 22:02:00,26.0,19.0,30.11,WNW,300,9.0,14.0,76,0.00,,,0.01,,2013-03-25 03:02:00,
2013-03-24 22:12:00,26.0,19.0,30.11,WNW,300,9.0,14.0,76,0.00,,,0.01,,2013-03-25 03:12:00,
2013-03-24 22:22:00,26.0,20.0,30.11,WNW,293,7.0,16.0,77,0.00,,,0.01,,2013-03-25 03:22:00,
2013-03-24 22:33:00,26.0,20.0,30.11,WNW,292,6.0,14.0,77,0.00,,,0.01,,2013-03-25 03:33:00,
2013-03-24 22:42:00,26.0,20.0,30.11,West,281,8.0,15.0,77,0.00,,,0.01,,2013-03-25 03:42:00,
2013-03-24 22:53:00,26.0,20.0,30.11,West,281,8.0,15.0,77,0.00,,,0.01,,2013-03-25 03:53:00,
2013-03-24 23:02:00,25.0,19.0,30.12,WNW,292,8.0,14.0,78,0.00,,,0.01,,2013-03-25 04:02:00,
2013-03-24 23:12:00,25.0,19.0,30.12,WNW,292,8.0,14.0,78,0.00,,,0.01,,2013-03-25 04:12:00,
2013-03-24 23:22:00,25.0,19.0,30.12,WNW,294,8.0,14.0,78,0.00,,,0.01,,2013-03-25 04:22:00,
2013-03-24 23:33:00,25.0,19.0,30.11,WNW,293,8.0,15.0,78,0.00,,,0.01,,2013-03-25 04:33:00,
2013-03-24 23:42:00,25.0,19.0,30.11,WNW,293,8.0,15.0,78,0.00,,,0.01,,2013-03-25 04:42:00,
2013-03-24 23:52:00,25.0,19.0,30.11,WNW,283,5.0,15.0,79,0.00,,,0.01,,2013-03-25 04:52:00,